DELTA 1 DEB, 40752

Orbit data source: Space-Track

DELTA 1 DEB, 40752 is space debris in LEO originally from a launch on Thu, 29 Jul 1976 UTC launched from the Air Force Western Test Range (AFWTR). Debris objects in space refer to the collection of defunct objects orbiting the Earth. Examples of debris include non-operational satellites, rocket bodies, and fragments generated from explosions, collisions, or faulty payload assembly.

Loading next visibility...
DELTA 1 DEB details
Identifier
40752, 1976-077FV
Orbit
LEO
Last TLE update11 hours ago
Origin
Flag of USGSFC (US)
ManufacturerUnknown
MissionSpacecraft
Bus & MotorUnknown
MassUnknown
Launch date (UTC)
1976-07-29 (48 years ago)
Launch vehicleUnknown
Launch site
Air Force Western Test Range (AFWTR)
Object type
Payload
Rocket body
Debris
Shape & HBRUnknown
Radar Cross SectionSmall (<0.1 m²)

Expand to show TLE details & history

TLE from 11 hours ago
0 DELTA 1 DEB
1 40752U 76077FV  24339.92227170  .00000004  00000-0  71028-3 0  9991
2 40752 102.1829 139.9933 0565623 250.0101 276.3599 11.37617822458383
Epoch: 2024-12-04T22:08Z
Definitive object data (Epoch: 2024-12-04T22:08:04.274Z)
Latitude19.63964°
Longitude-81.83685°
Altitude1,949.111 km
Speed6.932 km/s
True Right ascension21h 37m 33s
True Declination19° 32' 48"
Sunlit
Object was in daylight at TLE epoch
Visualization TLE readout
Latitude-77.04589°
Longitude163.21104°
Altitude1,568.69 km
Speed7.265 km/s
Apparent Right ascension18h 02m 06s
Apparent Declination-64° 58' 25"
Sunlit
Object is in daylight
Visualization observer readout
Local Sidereal Time07:16:33
Azimuth162.858° S
Elevation-62.737°
Doppler factor1
Orbital elements
Apogee altitude2,442.777 km
Perigee altitude1,498.334 km
Semi-major axis8,348.693 km
Eccentricity0.0565623
Inclination102.1829°
RAAN139.9933°
Arg. of periapsis250.0101°
True anomaly269.88124°
Mean anomaly276.3599°
Eccentric anomaly273.12393°
Mean motion2.84522 °/min
BSTAR0.00071028
Orbital period126.53 mins
Loading maneuver chart data...
Loading historical data...
Loading historical data...
Loading historical data...
Loading historical data...
Loading historical data...
Loading historical data...
Loading historical data...

DELTA 1 DEB Visibility forecast

Observer location: undefined°, undefined

Span
Click to sort rows by Start time (UTC) header in descending order
Start Az.
Max El. time (UTC)
Max El. Az.
Max El.
End time (UTC)
End Az.
24 mins2024-12-05 09:52:20.825Z140.972° SSE2024-12-05 10:03:20.825Z72.315° E42.276°2024-12-05 10:16:20.825Z346.854° N
21 mins2024-12-05 11:58:20.825Z203.07° SW2024-12-05 12:08:20.825Z268.723° W32.339°2024-12-05 12:19:20.825Z329.131° NNW
20 mins2024-12-05 23:10:20.825Z25.484° NE2024-12-05 23:21:20.825Z109.941° ESE40.536°2024-12-05 23:30:20.825Z178.489° S
19 mins2024-12-06 01:14:20.825Z5.887° NNE2024-12-06 01:24:20.825Z302.339° NW33.96°2024-12-06 01:33:20.825Z240.944° WSW
7 mins2024-12-06 03:21:20.825Z344.061° N2024-12-06 03:24:20.825Z328.873° NNW12.691°2024-12-06 03:28:20.825Z308.541° NW
9 mins2024-12-06 07:14:20.825Z51.329° ENE2024-12-06 07:18:20.825Z32.1° NE13.651°2024-12-06 07:23:20.825Z8.25° NNE
10 mins2024-12-06 09:08:20.825Z118.278° SE2024-12-06 09:18:20.825Z56.405° ENE34.708°2024-12-06 09:18:20.825Z56.405° ENE
|